EW7004 Weather Reports


Display with metric or nautical units.
time (UTC)temp
F
wind
direction
speed
MPH
gust
MPH
rain 1hr
in
rain 24hr
in
rain mn
in
humidity
%
barometer
mb
20260510214403 94 210 6.0 12.0 0.00 0.00 0.00 27 1028.4
20260510213403 94 219 6.0 13.0 0.00 0.00 0.00 27 1028.5
20260510212904 93 224 10.0 15.0 0.00 0.00 0.00 26 1028.5
20260510212403 93 189 4.0 10.0 0.00 0.00 0.00 28 1028.6
20260510211903 93 198 4.0 12.0 0.00 0.00 0.00 29 1028.7
20260510211403 93 264 7.0 14.0 0.00 0.00 0.00 26 1028.7
20260510210405 93 226 5.0 12.0 0.00 0.00 0.00 26 1028.9
20260510205404 92 267 6.0 12.0 0.00 0.00 0.00 26 1028.9
20260510204904 93 269 4.0 12.0 0.00 0.00 0.00 27 1028.9
20260510204403 92 251 3.0 9.0 0.00 0.00 0.00 26 1028.9
20260510203403 93 295 6.0 15.0 0.00 0.00 0.00 26 1029.0
20260510202903 93 234 5.0 8.0 0.00 0.00 0.00 25 1029.1
20260510201903 91 246 3.0 10.0 0.00 0.00 0.00 26 1029.1
20260510201403 91 292 4.0 8.0 0.00 0.00 0.00 26 1029.2
20260510200404 91 353 3.0 8.0 0.00 0.00 0.00 26 1029.2
20260510195904 91 347 5.0 8.0 0.00 0.00 0.00 26 1029.2
20260510195403 91 313 5.0 9.0 0.00 0.00 0.00 26 1029.2
20260510194904 90 209 3.0 10.0 0.00 0.00 0.00 29 1029.3
20260510194404 90 318 3.0 3.0 0.00 0.00 0.00 27 1029.3
20260510193904 90 193 2.0 6.0 0.00 0.00 0.00 27 1029.3
20260510193403 89 194 2.0 5.0 0.00 0.00 0.00 28 1029.3
20260510192403 88 342 3.0 5.0 0.00 0.00 0.00 28 1029.4
20260510191404 87 256 2.0 8.0 0.00 0.00 0.00 28 1029.5
20260510190404 87 243 3.0 6.0 0.00 0.00 0.00 29 1029.5
20260510185904 86 73 3.0 6.0 0.00 0.00 0.00 29 1029.5
20260510185404 85 323 1.0 7.0 0.00 0.00 0.00 30 1029.5
20260510184904 85 298 2.0 7.0 0.00 0.00 0.00 30 1029.6
20260510184403 85 272 5.0 10.0 0.00 0.00 0.00 29 1029.6
20260510183904 85 287 5.0 8.0 0.00 0.00 0.00 30 1029.7
20260510183404 85 236 2.0 8.0 0.00 0.00 0.00 31 1029.7
20260510182903 84 255 3.0 8.0 0.00 0.00 0.00 31 1029.7
20260510182404 84 295 2.0 6.0 0.00 0.00 0.00 31 1029.7
20260510181903 83 289 5.0 10.0 0.00 0.00 0.00 32 1029.7
20260510181403 83 288 2.0 7.0 0.00 0.00 0.00 32 1029.8
20260510180904 82 298 3.0 7.0 0.00 0.00 0.00 33 1029.8
20260510180403 81 253 1.0 6.0 0.00 0.00 0.00 34 1029.8
20260510175903 81 349 3.0 7.0 0.00 0.00 0.00 33 1029.8
20260510174903 81 275 4.0 8.0 0.00 0.00 0.00 34 1029.8
20260510174403 81 290 3.0 6.0 0.00 0.00 0.00 34 1029.8
20260510173403 81 207 3.0 5.0 0.00 0.00 0.00 30 1029.7
20260510172903 80 205 2.0 3.0 0.00 0.00 0.00 33 1029.8
20260510172403 79 221 2.0 3.0 0.00 0.00 0.00 32 1029.8
20260510171903 79 230 2.0 3.0 0.00 0.00 0.00 32 1029.8
20260510171403 78 4 0.0 3.0 0.00 0.00 0.00 35 1029.8
20260510170903 78 198 0.0 2.0 0.00 0.00 0.00 36 1029.8
20260510170403 78 202 2.0 3.0 0.00 0.00 0.00 36 1029.8
20260510165903 77 154 0.0 2.0 0.00 0.00 0.00 40 1029.8
20260510165403 76 143 1.0 3.0 0.00 0.00 0.00 40 1029.9
20260510164903 75 221 0.0 0.0 0.00 0.00 0.00 42 1029.8
20260510163903 74 234 2.0 3.0 0.00 0.00 0.00 43 1029.9
20260510163404 74 212 2.0 3.0 0.00 0.00 0.00 44 1029.9
20260510162903 74 266 2.0 3.0 0.00 0.00 0.00 45 1029.9
20260510162403 73 254 1.0 2.0 0.00 0.00 0.00 47 1029.9
20260510161903 73 246 0.0 2.0 0.00 0.00 0.00 47 1030.0
20260510161403 72 246 2.0 3.0 0.00 0.00 0.00 47 1029.9
20260510160903 72 257 0.0 0.0 0.00 0.00 0.00 49 1029.9
20260510160403 71 257 0.0 0.0 0.00 0.00 0.00 50 1029.9
20260510155904 70 257 0.0 0.0 0.00 0.00 0.00 52 1029.9
20260510154404 68 257 0.0 0.0 0.00 0.00 0.00 54 1030.0
20260510153903 68 257 0.0 0.0 0.00 0.00 0.00 56 1030.0
20260510153403 67 257 0.0 0.0 0.00 0.00 0.00 56 1030.0
20260510152903 66 302 0.0 0.0 0.00 0.00 0.00 57 1030.0
20260510152403 66 302 0.0 0.0 0.00 0.00 0.00 58 1030.0
20260510151903 65 302 0.0 0.0 0.00 0.00 0.00 59 1030.1
20260510151403 64 302 0.0 0.0 0.00 0.00 0.00 60 1030.1
20260510150904 64 302 0.0 0.0 0.00 0.00 0.00 61 1030.2
20260510145903 63 302 0.0 0.0 0.00 0.00 0.00 62 1030.2
20260510145403 63 302 0.0 0.0 0.00 0.00 0.00 62 1030.1
20260510144903 62 185 0.0 0.0 0.00 0.00 0.00 63 1030.1
20260510144403 62 185 0.0 0.0 0.00 0.00 0.00 64 1030.0
20260510143903 61 185 0.0 0.0 0.00 0.00 0.00 65 1030.1
20260510143404 61 185 0.0 0.0 0.00 0.00 0.00 64 1030.1
20260510142903 61 185 0.0 0.0 0.00 0.00 0.00 65 1030.1
20260510142403 61 185 0.0 0.0 0.00 0.00 0.00 65 1030.2
20260510141903 60 185 0.0 0.0 0.00 0.00 0.00 65 1030.1
20260510141403 60 200 0.0 0.0 0.00 0.00 0.00 66 1030.1
20260510140903 59 137 0.0 0.0 0.00 0.00 0.00 66 1030.1
20260510140403 59 137 0.0 0.0 0.00 0.00 0.00 66 1030.2
20260510135903 58 137 0.0 0.0 0.00 0.00 0.00 66 1030.1
20260510135403 57 137 0.0 0.0 0.00 0.00 0.00 68 1030.0
20260510134903 57 137 0.0 0.0 0.00 0.00 0.00 69 1030.1
20260510134403 56 137 0.0 0.0 0.00 0.00 0.00 70 1030.1
20260510133903 56 137 0.0 0.0 0.00 0.00 0.00 70 1029.9
20260510133403 56 137 0.0 0.0 0.00 0.00 0.00 69 1029.9
20260510132903 56 137 0.0 0.0 0.00 0.00 0.00 68 1029.8
20260510132403 56 137 0.0 0.0 0.00 0.00 0.00 67 1029.7
20260510131903 56 137 0.0 0.0 0.00 0.00 0.00 67 1029.5
20260510131404 56 137 0.0 0.0 0.00 0.00 0.00 67 1029.5
20260510130903 56 137 0.0 0.0 0.00 0.00 0.00 67 1029.4
20260510130404 56 137 0.0 0.0 0.00 0.00 0.00 66 1029.4
20260510125904 56 137 0.0 0.0 0.00 0.00 0.00 66 1029.3
20260510125403 56 137 0.0 0.0 0.00 0.00 0.00 66 1029.3
20260510124903 56 137 0.0 0.0 0.00 0.00 0.00 66 1029.3
20260510124404 56 137 0.0 0.0 0.00 0.00 0.00 65 1029.3
20260510123903 57 137 0.0 0.0 0.00 0.00 0.00 65 1029.3
20260510123404 57 137 0.0 0.0 0.00 0.00 0.00 65 1029.3
20260510122404 57 137 0.0 0.0 0.00 0.00 0.00 65 1029.3
20260510121404 57 137 0.0 0.0 0.00 0.00 0.00 63 1029.2
20260510120904 57 137 0.0 0.0 0.00 0.00 0.00 63 1029.3
20260510120404 57 137 0.0 0.0 0.00 0.00 0.00 63 1029.3
20260510115903 57 137 0.0 0.0 0.00 0.00 0.00 63 1029.3
20260510115403 58 137 0.0 0.0 0.00 0.00 0.00 63 1029.3
20260510114903 58 137 0.0 0.0 0.00 0.00 0.00 62 1029.3
20260510114404 58 137 0.0 0.0 0.00 0.00 0.00 62 1029.3
20260510113904 58 137 0.0 0.0 0.00 0.00 0.00 62 1029.3
20260510112903 58 137 0.0 0.0 0.00 0.00 0.00 62 1029.3
20260510112403 58 137 0.0 0.0 0.00 0.00 0.00 62 1029.3
20260510111904 58 137 0.0 0.0 0.00 0.00 0.00 62 1029.3
20260510111404 58 137 0.0 0.0 0.00 0.00 0.00 62 1029.4
20260510110904 58 137 0.0 0.0 0.00 0.00 0.00 62 1029.3
20260510110403 58 137 0.0 0.0 0.00 0.00 0.00 62 1029.3
20260510105904 59 137 0.0 0.0 0.00 0.00 0.00 62 1029.4
20260510105404 59 137 0.0 0.0 0.00 0.00 0.00 62 1029.5
20260510104904 59 137 0.0 0.0 0.00 0.00 0.00 62 1029.5
20260510104403 59 137 0.0 0.0 0.00 0.00 0.00 61 1029.4
20260510103404 59 137 0.0 0.0 0.00 0.00 0.00 61 1029.3
20260510102903 60 137 0.0 0.0 0.00 0.00 0.00 61 1029.4
20260510101904 60 137 0.0 0.0 0.00 0.00 0.00 60 1029.3
20260510101404 60 137 0.0 0.0 0.00 0.00 0.00 60 1029.3
20260510100903 60 137 0.0 0.0 0.00 0.00 0.00 60 1029.4
20260510100403 60 137 0.0 0.0 0.00 0.00 0.00 60 1029.4
20260510095903 60 137 0.0 0.0 0.00 0.00 0.00 60 1029.5
20260510095403 60 137 0.0 0.0 0.00 0.00 0.00 59 1029.5
20260510094904 61 137 0.0 0.0 0.00 0.00 0.00 59 1029.5
20260510094403 61 137 0.0 0.0 0.00 0.00 0.00 60 1029.5
20260510093903 61 137 0.0 0.0 0.00 0.00 0.00 60 1029.5
20260510093404 61 137 0.0 0.0 0.00 0.00 0.00 59 1029.5
20260510092403 61 137 0.0 0.0 0.00 0.00 0.00 59 1029.5
20260510091904 61 137 0.0 0.0 0.00 0.00 0.00 59 1029.5
20260510091403 61 137 0.0 0.0 0.00 0.00 0.00 59 1029.6
20260510090903 62 137 0.0 0.0 0.00 0.00 0.00 58 1029.6
20260510090403 62 137 0.0 0.0 0.00 0.00 0.00 58 1029.7
20260510085903 62 137 0.0 0.0 0.00 0.00 0.00 58 1029.7
20260510085404 62 137 0.0 0.0 0.00 0.00 0.00 58 1029.6
20260510084904 62 137 0.0 0.0 0.00 0.00 0.00 57 1029.6
20260510084404 63 137 0.0 0.0 0.00 0.00 0.00 57 1029.7
20260510083904 63 137 0.0 0.0 0.00 0.00 0.00 57 1029.7
20260510083403 63 137 0.0 0.0 0.00 0.00 0.00 58 1029.7
20260510082404 63 137 0.0 0.0 0.00 0.00 0.00 57 1029.7
20260510081903 63 137 0.0 0.0 0.00 0.00 0.00 57 1029.8
20260510080904 64 137 0.0 0.0 0.00 0.00 0.00 57 1029.8
20260510080405 64 137 0.0 0.0 0.00 0.00 0.00 59 1029.8
20260510075904 64 137 0.0 0.0 0.00 0.00 0.00 58 1029.9
20260510075403 64 137 0.0 0.0 0.00 0.00 0.00 58 1029.9
20260510074904 65 137 0.0 0.0 0.00 0.00 0.00 57 1029.9
20260510074404 65 137 0.0 0.0 0.00 0.00 0.00 57 1030.0
20260510073904 65 137 0.0 0.0 0.00 0.00 0.00 54 1030.0
20260510073404 65 137 0.0 0.0 0.00 0.00 0.00 55 1030.0
20260510072904 65 137 0.0 0.0 0.00 0.00 0.00 55 1030.0
20260510072404 65 137 0.0 0.0 0.00 0.00 0.00 56 1030.1
20260510071904 66 137 0.0 0.0 0.00 0.00 0.00 56 1030.1
20260510071404 66 137 0.0 0.0 0.00 0.00 0.00 56 1030.1
20260510070904 66 137 0.0 0.0 0.00 0.00 0.00 56 1030.1
20260510070404 66 137 0.0 0.0 0.00 0.00 0.00 54 1030.2
20260510065904 66 137 0.0 0.0 0.00 0.00 0.00 51 1030.2
20260510064903 66 137 0.0 0.0 0.00 0.00 0.00 50 1030.1
20260510063904 67 137 0.0 0.0 0.00 0.00 0.00 51 1030.1
20260510063404 67 137 0.0 0.0 0.00 0.00 0.00 51 1030.1
20260510062904 67 137 0.0 0.0 0.00 0.00 0.00 52 1030.0
20260510062403 67 158 0.0 0.0 0.00 0.00 0.00 52 1030.0
20260510061903 67 158 0.0 0.0 0.00 0.00 0.00 51 1030.1
20260510061403 68 158 0.0 2.0 0.00 0.00 0.00 51 1030.1
20260510060903 68 158 1.0 3.0 0.00 0.00 0.00 50 1030.1
20260510060403 68 162 0.0 0.0 0.00 0.00 0.00 49 1030.1
20260510055903 68 163 0.0 0.0 0.00 0.00 0.00 48 1029.9
20260510055404 68 163 0.0 2.0 0.00 0.00 0.00 48 1030.0
20260510054903 68 163 1.0 3.0 0.00 0.00 0.00 47 1030.0
20260510054403 69 150 2.0 3.0 0.00 0.00 0.00 46 1030.1
20260510053903 69 150 2.0 3.0 0.00 0.00 0.00 44 1030.0
20260510053403 69 133 1.0 2.0 0.00 0.00 0.00 44 1030.1
20260510052403 69 178 1.0 2.0 0.00 0.00 0.00 43 1030.1
20260510051903 69 178 0.0 2.0 0.00 0.00 0.00 42 1030.0
20260510051403 70 178 1.0 2.0 0.00 0.00 0.00 41 1030.0
20260510050903 70 178 0.0 2.0 0.00 0.00 0.00 40 1030.0
20260510050403 70 182 0.0 3.0 0.00 0.00 0.00 39 1030.0
20260510045903 70 182 1.0 3.0 0.00 0.00 0.00 38 1030.1
20260510045404 71 216 1.0 3.0 0.00 0.00 0.00 36 1030.0
20260510044403 71 216 0.0 0.0 0.00 0.00 0.00 35 1029.9
20260510043903 71 216 0.0 0.0 0.00 0.00 0.00 34 1029.8
20260510043404 71 216 0.0 2.0 0.00 0.00 0.00 33 1029.8
20260510042903 71 216 0.0 0.0 0.00 0.00 0.00 32 1029.9
20260510042403 72 216 1.0 2.0 0.00 0.00 0.00 31 1029.8
20260510041903 72 216 0.0 2.0 0.00 0.00 0.00 31 1029.7
20260510041403 72 192 2.0 3.0 0.00 0.00 0.00 31 1029.6
20260510040903 72 205 1.0 5.0 0.00 0.00 0.00 32 1029.6
20260510040403 73 217 4.0 6.0 0.00 0.00 0.00 31 1029.6
20260510035903 73 221 5.0 7.0 0.00 0.00 0.00 31 1029.5
20260510034903 73 217 3.0 5.0 0.00 0.00 0.00 33 1029.5
20260510034404 73 217 4.0 6.0 0.00 0.00 0.00 32 1029.4
20260510033903 74 216 4.0 6.0 0.00 0.00 0.00 32 1029.3
20260510033404 74 216 3.0 6.0 0.00 0.00 0.00 32 1029.2
20260510032403 75 223 5.0 5.0 0.00 0.00 0.00 32 1029.2
20260510031404 75 225 2.0 5.0 0.00 0.00 0.00 32 1029.0
20260510030903 75 215 2.0 5.0 0.00 0.00 0.00 31 1029.0
20260510030404 76 227 3.0 5.0 0.00 0.00 0.00 31 1028.9
20260510025904 76 218 3.0 3.0 0.00 0.00 0.00 31 1028.9
20260510025403 76 206 2.0 5.0 0.00 0.00 0.00 31 1028.8
20260510024903 76 201 1.0 6.0 0.00 0.00 0.00 31 1028.8
20260510024404 77 207 5.0 7.0 0.00 0.00 0.00 30 1028.7
20260510023903 77 225 3.0 5.0 0.00 0.00 0.00 30 1028.6
20260510023404 78 198 1.0 3.0 0.00 0.00 0.00 30 1028.6
20260510022903 78 211 2.0 3.0 0.00 0.00 0.00 31 1028.6
20260510022403 78 173 2.0 3.0 0.00 0.00 0.00 30 1028.5
20260510021403 79 261 2.0 6.0 0.00 0.00 0.00 30 1028.5
20260510020903 79 246 2.0 10.0 0.00 0.00 0.00 30 1028.4
20260510020404 79 214 2.0 8.0 0.00 0.00 0.00 31 1028.3
20260510015903 79 192 5.0 12.0 0.00 0.00 0.00 30 1028.1
20260510015404 80 203 6.0 12.0 0.00 0.00 0.00 29 1028.1
20260510014403 81 223 5.0 12.0 0.00 0.00 0.00 29 1028.1
20260510013903 81 208 8.0 14.0 0.00 0.00 0.00 28 1027.9
20260510013403 81 213 10.0 17.0 0.00 0.00 0.00 27 1027.9
20260510012903 81 209 11.0 16.0 0.00 0.00 0.00 27 1027.8
20260510012404 82 205 8.0 15.0 0.00 0.00 0.00 27 1027.7
20260510011903 82 209 12.0 18.0 0.00 0.00 0.00 27 1027.7
20260510011404 83 209 10.0 16.0 0.00 0.00 0.00 27 1027.8
20260510010903 83 219 11.0 16.0 0.00 0.00 0.00 27 1027.7
20260510010403 83 219 7.0 16.0 0.00 0.00 0.00 28 1027.7
20260510005903 84 217 12.0 17.0 0.00 0.00 0.00 26 1027.6
20260510005403 84 210 8.0 15.0 0.00 0.00 0.00 27 1027.5
20260510004903 85 198 10.0 15.0 0.00 0.00 0.00 27 1027.4
20260510003903 85 216 12.0 17.0 0.00 0.00 0.00 27 1027.4
20260510003403 85 215 10.0 18.0 0.00 0.00 0.00 27 1027.3
20260510002904 86 214 10.0 17.0 0.00 0.00 0.00 27 1027.3
20260510002403 86 199 8.0 17.0 0.00 0.00 0.00 28 1027.3
20260510001904 87 211 11.0 16.0 0.00 0.00 0.00 27 1027.2
20260510000404 87 220 7.0 16.0 0.00 0.00 0.00 27 1027.2
20260509235403 87 194 7.0 18.0 0.00 0.00 0.00 27 1027.1
20260509234903 88 219 12.0 16.0 0.00 0.00 0.00 26 1027.1
20260509234403 88 206 12.0 16.0 0.00 0.00 0.00 26 1027.1
20260509232404 89 198 6.0 12.0 0.00 0.00 0.00 26 1027.1
20260509231403 90 219 9.0 16.0 0.00 0.00 0.00 25 1027.1
20260509230904 89 191 5.0 12.0 0.00 0.00 0.00 26 1027.2
20260509230403 89 207 8.0 17.0 0.00 0.00 0.00 25 1027.2
20260509225903 89 210 9.0 20.0 0.00 0.00 0.00 24 1027.2
20260509225404 90 196 8.0 17.0 0.00 0.00 0.00 25 1027.2
20260509224903 90 224 7.0 16.0 0.00 0.00 0.00 24 1027.2
20260509224403 90 227 7.0 14.0 0.00 0.00 0.00 25 1027.2
20260509223903 90 198 7.0 14.0 0.00 0.00 0.00 24 1027.2
20260509223403 91 188 9.0 17.0 0.00 0.00 0.00 24 1027.3
20260509222904 91 205 6.0 12.0 0.00 0.00 0.00 25 1027.3
20260509222404 91 203 7.0 14.0 0.00 0.00 0.00 26 1027.3
20260509221903 90 200 6.0 15.0 0.00 0.00 0.00 25 1027.3
20260509221404 91 171 7.0 14.0 0.00 0.00 0.00 26 1027.4
20260509220904 91 210 6.0 12.0 0.00 0.00 0.00 25 1027.5
20260509215903 91 235 7.0 14.0 0.00 0.00 0.00 24 1027.6
20260509215403 91 214 7.0 16.0 0.00 0.00 0.00 24 1027.6
20260509214904 91 228 7.0 13.0 0.00 0.00 0.00 24 1027.6